Flag for U.S.A. Weather past 2 weeks in Leawood, Kansas, U.S.A.

Now
71 °F

Clear.


Feels Like: 76 °F
Forecast: 60 / 82 °F
Wind: 5 mph from East

Location: Johnson County Executive Airport

Current Time: Oct 25, 2014 at 8:53:24 PM

Latest Report: Oct 25, 2014 at 7:53 PM


Visibility: 10 mi

Pressure: 29.99 "Hg

Humidity: 61%

Dew point: 57 °F

Location of LeawoodLocation

Historic Weather in Leawood — Graph

°F

Leawood temperature yesterday

Maximum temperature yesterday: 75 °F (at 2:53 PM)
Minimum temperature yesterday: 53 °F (at 7:53 AM)
Average temperature yesterday: 63 °F

Past Weeks' High & Low Weather Summary

 TemperatureHumidityPressure
High81 °F (Oct 25, 3:53 PM)100% (Oct 13, 7:53 PM)30.24 "Hg (Oct 13, 7:53 PM)
Low42 °F (Oct 19, 5:53 AM)33% (Oct 15, 3:53 PM)29.47 "Hg (Oct 13, 2:53 PM)
Average58 °F73%29.98 "Hg
* Reported Oct 10 6:53 PM — Oct 25 6:53 PM, Leawood, Weather by CustomWeather, © 2014

Note: Actual official high and low records may vary slightly from our data, if they occured in-between our weather recording intervals... More about our weather records

Advertising

Leawood weather history for previous 24 hours

 ConditionsComfort  
Time TempWeatherWind HumidityBarometerVisibility
6:53 PM
Oct 25
73 °FSunny.5 mph57%29.99 "Hg10 mi
5:53 PM77 °FSunny.N/A52%29.98 "Hg10 mi
4:53 PM79 °FSunny.6 mph48%29.99 "Hg10 mi
3:53 PM81 °FSunny.5 mph47%29.99 "Hg10 mi
2:53 PM80 °FSunny.6 mph52%30.00 "Hg10 mi
1:53 PM78 °FSunny.6 mph54%30.02 "Hg10 mi
12:53 PM77 °FSunny.6 mph58%30.03 "Hg10 mi
11:53 AM74 °FSunny.3 mph69%30.06 "Hg9 mi
10:53 AM71 °FSunny.No wind78%30.06 "Hg8 mi
9:53 AM61 °FFog.No wind100%30.06 "Hg5 mi
9:02 AM58 °FFog.No wind100%30.06 "Hg3 mi
8:53 AM56 °FFog.No wind100%30.04 "Hg0 mi
7:53 AM53 °FFog.No wind100%30.03 "Hg0 mi
6:53 AM52 °FFog.No wind100%30.03 "Hg0 mi
5:53 AM58 °FFog.5 mph100%30.01 "Hg2 mi
4:53 AM57 °FFog.No wind100%29.99 "Hg0 mi
4:03 AM59 °FFog.No wind100%30.01 "Hg2 mi
3:53 AM60 °FFog.No wind96%29.98 "Hg3 mi
2:53 AM60 °FFog.3 mph100%29.99 "Hg5 mi
1:53 AM60 °FFog.3 mph100%29.98 "Hg5 mi
12:53 AM62 °FClear.3 mph96%29.98 "Hg8 mi
11:53 PM
Oct 24
62 °FClear.6 mph96%29.98 "Hg8 mi
10:53 PM63 °FClear.7 mph93%29.98 "Hg9 mi
9:53 PM64 °FClear.6 mph90%29.98 "Hg10 mi
8:53 PM67 °FClear.9 mph85%29.95 "Hg10 mi
Weather by CustomWeather, © 2014

See weather overviewHow to use our weather pages